TimeEDT,TemperatureF,Dew PointF,Humidity,Sea Level PressureIn,VisibilityMPH,Wind Direction,Wind SpeedMPH,Gust SpeedMPH,PrecipitationIn,Events,Conditions,WindDirDegrees,DateUTC
12:15 AM,60.8,51.8,72,29.99,10.0,Calm,Calm,-,N/A,,Overcast,0,2013-05-07 04:15:00
12:35 AM,59.0,51.8,77,29.99,10.0,NNW,3.5,-,N/A,,Overcast,340,2013-05-07 04:35:00
12:55 AM,59.0,51.8,77,29.99,10.0,NNW,3.5,-,N/A,,Overcast,340,2013-05-07 04:55:00
1:15 AM,59.0,51.8,77,29.99,10.0,NNW,3.5,-,N/A,,Overcast,330,2013-05-07 05:15:00
1:35 AM,59.0,51.8,77,29.99,10.0,Calm,Calm,-,N/A,,Overcast,0,2013-05-07 05:35:00
1:55 AM,59.0,51.8,77,29.98,10.0,Calm,Calm,-,N/A,,Overcast,0,2013-05-07 05:55:00
2:15 AM,59.0,51.8,77,29.98,10.0,Calm,Calm,-,N/A,,Overcast,0,2013-05-07 06:15:00
2:35 AM,59.0,51.8,77,29.97,10.0,NW,3.5,-,N/A,,Overcast,320,2013-05-07 06:35:00
2:55 AM,57.2,51.8,82,29.97,10.0,North,3.5,-,N/A,,Overcast,350,2013-05-07 06:55:00
3:15 AM,59.0,50.0,72,29.97,10.0,NNW,3.5,-,N/A,,Overcast,340,2013-05-07 07:15:00
3:35 AM,55.4,51.8,88,29.97,10.0,North,3.5,-,N/A,,Overcast,360,2013-05-07 07:35:00
3:55 AM,55.4,51.8,88,29.97,10.0,NNW,3.5,-,N/A,,Overcast,330,2013-05-07 07:55:00
4:15 AM,55.4,50.0,82,29.97,10.0,North,3.5,-,N/A,,Mostly Cloudy,350,2013-05-07 08:15:00
4:35 AM,55.4,50.0,82,29.97,10.0,North,4.6,-,N/A,,Mostly Cloudy,360,2013-05-07 08:35:00
4:55 AM,55.4,50.0,82,29.97,10.0,North,3.5,-,N/A,,Overcast,360,2013-05-07 08:55:00
5:15 AM,57.2,50.0,77,29.98,10.0,Calm,Calm,-,N/A,,Overcast,0,2013-05-07 09:15:00
5:35 AM,55.4,51.8,88,29.98,10.0,North,3.5,-,N/A,,Overcast,10,2013-05-07 09:35:00
6:15 AM,55.4,51.8,88,29.99,10.0,Calm,Calm,-,N/A,,Overcast,0,2013-05-07 10:15:00
6:35 AM,55.4,51.8,88,29.99,10.0,NE,3.5,-,N/A,,Overcast,40,2013-05-07 10:35:00
6:55 AM,57.2,51.8,82,29.99,10.0,Calm,Calm,-,N/A,,Overcast,0,2013-05-07 10:55:00
7:15 AM,55.4,51.8,88,30.01,10.0,ENE,4.6,-,N/A,,Overcast,70,2013-05-07 11:15:00
7:35 AM,57.2,51.8,82,30.01,10.0,East,4.6,-,N/A,,Overcast,80,2013-05-07 11:35:00
7:55 AM,57.2,53.6,88,30.02,10.0,East,4.6,-,N/A,,Overcast,80,2013-05-07 11:55:00
8:15 AM,59.0,53.6,82,30.02,10.0,East,4.6,-,N/A,,Overcast,80,2013-05-07 12:15:00
8:35 AM,59.0,53.6,82,30.03,10.0,East,4.6,-,N/A,,Mostly Cloudy,90,2013-05-07 12:35:00
8:55 AM,60.8,53.6,77,30.03,10.0,East,5.8,-,N/A,,Scattered Clouds,80,2013-05-07 12:55:00
9:15 AM,62.6,53.6,72,30.03,10.0,East,6.9,-,N/A,,Scattered Clouds,90,2013-05-07 13:15:00
9:35 AM,62.6,53.6,72,30.03,10.0,ESE,6.9,-,N/A,,Clear,110,2013-05-07 13:35:00
9:55 AM,62.6,53.6,72,30.03,10.0,East,5.8,-,N/A,,Clear,90,2013-05-07 13:55:00
10:15 AM,64.4,53.6,68,30.03,10.0,East,5.8,-,N/A,,Clear,90,2013-05-07 14:15:00
10:35 AM,64.4,53.6,68,30.03,10.0,ENE,4.6,-,N/A,,Clear,70,2013-05-07 14:35:00
10:55 AM,66.2,53.6,64,30.03,10.0,NE,4.6,-,N/A,,Clear,40,2013-05-07 14:55:00
11:15 AM,68.0,51.8,56,30.03,10.0,ENE,4.6,-,N/A,,Clear,70,2013-05-07 15:15:00
11:35 AM,68.0,51.8,56,30.03,10.0,Calm,Calm,-,N/A,,Clear,0,2013-05-07 15:35:00
11:55 AM,69.8,51.8,53,30.03,10.0,East,6.9,-,N/A,,Scattered Clouds,90,2013-05-07 15:55:00
12:15 PM,69.8,51.8,53,30.02,10.0,NE,5.8,-,N/A,,Scattered Clouds,40,2013-05-07 16:15:00
12:35 PM,69.8,50.0,49,30.02,10.0,NNE,6.9,-,N/A,,Scattered Clouds,30,2013-05-07 16:35:00
12:55 PM,71.6,50.0,46,30.02,10.0,NNE,8.1,-,N/A,,Clear,30,2013-05-07 16:55:00
1:15 PM,71.6,50.0,46,30.01,10.0,NE,8.1,-,N/A,,Scattered Clouds,40,2013-05-07 17:15:00
1:35 PM,71.6,50.0,46,30.01,10.0,ENE,5.8,-,N/A,,Scattered Clouds,60,2013-05-07 17:35:00
1:55 PM,73.4,50.0,44,30.01,10.0,East,6.9,-,N/A,,Scattered Clouds,80,2013-05-07 17:55:00
2:15 PM,73.4,48.2,41,30.00,10.0,ENE,9.2,-,N/A,,Scattered Clouds,70,2013-05-07 18:15:00
2:35 PM,73.4,48.2,41,29.99,10.0,East,9.2,-,N/A,,Scattered Clouds,80,2013-05-07 18:35:00
2:55 PM,71.6,50.0,46,29.99,10.0,East,10.4,-,N/A,,Mostly Cloudy,80,2013-05-07 18:55:00
3:15 PM,73.4,46.4,38,29.99,10.0,NE,10.4,-,N/A,,Mostly Cloudy,50,2013-05-07 19:15:00
3:35 PM,71.6,46.4,41,29.98,10.0,ENE,5.8,-,N/A,,Overcast,60,2013-05-07 19:35:00
3:55 PM,73.4,48.2,41,29.98,10.0,ENE,9.2,-,N/A,,Scattered Clouds,70,2013-05-07 19:55:00
4:15 PM,73.4,50.0,44,29.97,10.0,East,5.8,-,N/A,,Scattered Clouds,80,2013-05-07 20:15:00
4:35 PM,73.4,48.2,41,29.97,10.0,ESE,6.9,-,N/A,,Scattered Clouds,110,2013-05-07 20:35:00
4:55 PM,73.4,46.4,38,29.96,10.0,Calm,Calm,-,N/A,,Scattered Clouds,0,2013-05-07 20:55:00
5:15 PM,73.4,46.4,38,29.96,10.0,NE,6.9,-,N/A,,Scattered Clouds,40,2013-05-07 21:15:00
5:35 PM,75.2,46.4,36,29.96,10.0,ENE,9.2,-,N/A,,Scattered Clouds,70,2013-05-07 21:35:00
5:55 PM,75.2,46.4,36,29.96,10.0,NE,8.1,-,N/A,,Mostly Cloudy,40,2013-05-07 21:55:00
6:15 PM,75.2,46.4,36,29.96,10.0,NNE,6.9,-,N/A,,Overcast,30,2013-05-07 22:15:00
6:35 PM,73.4,44.6,36,29.96,10.0,NNE,8.1,-,N/A,,Overcast,20,2013-05-07 22:35:00
6:55 PM,73.4,46.4,38,29.96,10.0,North,6.9,-,N/A,,Overcast,10,2013-05-07 22:55:00
7:15 PM,71.6,48.2,43,29.97,10.0,NE,3.5,-,N/A,,Overcast,40,2013-05-07 23:15:00
7:35 PM,71.6,50.0,46,29.97,10.0,ENE,4.6,-,N/A,,Overcast,60,2013-05-07 23:35:00
7:55 PM,69.8,50.0,49,29.97,10.0,ENE,6.9,-,N/A,,Overcast,70,2013-05-07 23:55:00
8:15 PM,69.8,50.0,49,29.98,10.0,ENE,5.8,-,N/A,,Overcast,70,2013-05-08 00:15:00
8:35 PM,69.8,50.0,49,29.98,10.0,ENE,3.5,-,N/A,,Overcast,60,2013-05-08 00:35:00
8:55 PM,68.0,50.0,52,29.98,10.0,Calm,Calm,-,N/A,,Overcast,0,2013-05-08 00:55:00
9:15 PM,68.0,51.8,56,29.98,10.0,Calm,Calm,-,N/A,,Overcast,0,2013-05-08 01:15:00
9:35 PM,68.0,50.0,52,29.99,10.0,Calm,Calm,-,N/A,,Overcast,0,2013-05-08 01:35:00
9:55 PM,68.0,51.8,56,29.99,10.0,NNE,3.5,-,N/A,,Overcast,30,2013-05-08 01:55:00
10:15 PM,66.2,51.8,60,30.00,10.0,North,3.5,-,N/A,,Overcast,10,2013-05-08 02:15:00
10:35 PM,64.4,53.6,68,30.01,10.0,North,3.5,-,N/A,,Overcast,10,2013-05-08 02:35:00
10:55 PM,64.4,53.6,68,30.01,10.0,North,4.6,-,N/A,,Overcast,10,2013-05-08 02:55:00
11:15 PM,64.4,53.6,68,30.01,10.0,North,4.6,-,N/A,,Overcast,350,2013-05-08 03:15:00
11:35 PM,64.4,51.8,64,30.01,10.0,Calm,Calm,-,N/A,,Overcast,0,2013-05-08 03:35:00
11:55 PM,64.4,51.8,64,30.01,10.0,NNE,3.5,-,N/A,,Overcast,20,2013-05-08 03:55:00